This demonstration page uses our WeatherBlox Daily Observations layout. Learn more.

Left ArrowRight Arrow

44.89941, -97.11507

Hourly Observations for May 7, 2022

Temp ( °F °C ) Dew Point ( °F °C ) Humidity (%) Winds ( mph kmh ) Pressure ( in mb ) Visibility ( mi km ) Precip ( " mm )
12:53 am 00:53 Clear 51 10.6 46 7.8 83 83 SSE 8 13 29.83 1010 10 16 0.00 0.00
1:53 am 01:53 Clear 50 10 46 7.8 86 86 SSE 7 11 29.82 1010 10 16 0.00 0.00
2:53 am 02:53 Clear 49 9.4 45 7.2 86 86 SSE 8 13 29.82 1010 9 14 0.00 0.00
3:53 am 03:53 Clear 48 8.9 45 7.2 89 89 SE 7 11 29.81 1010 8 13 0.00 0.00
4:53 am 04:53 Mostly Clear 49 9.4 46 7.8 90 90 SE 9 15 29.80 1009 7 11 0.00 0.00
5:53 am 05:53 Cloudy 51 10.6 47 8.3 86 86 SSE 12 19 29.78 1009 7 11 0.00 0.00
6:34 am 06:34 Cloudy with Mist and Fog 50 10 47 8.3 89 89 SSE 14 22 29.80 1009 6 10 0.00 0.00
6:53 am 06:53 Cloudy with Mist and Fog 51 10.6 47 8.3 86 86 SSE 14 22 29.79 1009 6 10 0.00 0.00
7:33 am 07:33 Cloudy 52 11.1 48 8.9 86 86 SSE 14 22 29.80 1009 8 13 0.00 0.00
7:53 am 07:53 Cloudy 53 11.7 48 8.9 83 83 SSE 17 28 29.80 1009 9 14 0.00 0.00
8:04 am 08:04 Cloudy 53 11.7 48 8.9 83 83 SSE 18 30 29.79 1009 9 14 0.00 0.00
8:51 am 08:51 Mostly Cloudy 55 13 48 9 77 77 SSE 20 31 29.76 1008 10 16 0.00 0.00
8:53 am 08:53 Mostly Cloudy 55 12.8 49 9.4 80 80 SSE 24 39 29.77 1008 10 16 0.00 0.00
9:07 am 09:07 Mostly Cloudy 56 13.3 49 9.4 77 77 SSE 18 30 29.75 1007 10 16 0.00 0.00
9:53 am 09:53 Cloudy 60 15.6 50 10 70 70 SSE 20 31 29.74 1007 10 16 0.00 0.00
10:53 am 10:53 Cloudy 63 17.2 51 10.6 65 65 SSE 32 52 29.72 1007 10 16 0.00 0.00
11:22 am 11:22 Partly Cloudy 65 18.3 52 11.1 63 63 S 25 41 29.67 1005 10 16 0.00 0.00
11:53 am 11:53 Sunny 67 19.4 52 11.1 59 59 SSE 25 41 29.69 1006 10 16 0.00 0.00
12:53 pm 12:53 Partly Cloudy 70 21.1 52 11.1 53 53 S 26 43 29.66 1004 10 16 0.00 0.00
1:53 pm 13:53 Mostly Sunny 71 21.7 52 11.1 51 51 SSE 29 46 29.63 1003 10 16 0.00 0.00
2:53 pm 14:53 Sunny 72 22.2 51 10.6 48 48 SSE 31 50 29.60 1002 10 16 0.00 0.00
3:53 pm 15:53 Sunny 72 22.2 51 10.6 48 48 SSE 21 33 29.56 1001 10 16 0.00 0.00
4:53 pm 16:53 Sunny 72 22.2 49 9.4 44 44 SSE 26 43 29.52 1000 10 16 0.00 0.00
5:53 pm 17:53 Sunny 72 22.2 49 9.4 44 44 SSE 25 41 29.51 999 10 16 0.00 0.00
6:53 pm 18:53 Partly Cloudy 70 21.1 48 8.9 46 46 SSE 22 35 29.51 999 10 16 0.00 0.00
7:53 pm 19:53 Mostly Sunny 69 20.6 48 8.9 47 47 SSE 21 33 29.51 999 10 16 0.00 0.00
8:53 pm 20:53 Clear 67 19.4 47 8.3 49 49 SSE 18 30 29.49 999 10 16 0.00 0.00
9:53 pm 21:53 Cloudy 65 18.3 47 8.3 52 52 SSE 15 24 29.54 1000 10 16 0.00 0.00
10:53 pm 22:53 Cloudy with Light Rain 60 15.6 51 10.6 72 72 S 14 22 29.57 1002 10 16 0.00 0.00
11:10 pm 23:10 Cloudy with Nearby Thunderstorms 59 15 52 11.1 78 78 S 8 13 29.58 1002 8 13 0.02 0.51
11:19 pm 23:19 Cloudy with Strong Thunderstorms 58 14.4 52 11.1 81 81 SW 7 11 29.61 1003 4 6 0.05 1.27
11:34 pm 23:34 Cloudy with Nearby Thunderstorms 57 13.9 53 11.7 87 87 WNW 12 19 29.62 1003 5 8 0.08 2.03
11:51 pm 23:51 Cloudy with Rain 55 13 55 13 100 100 WNW 8 13 29.63 1003 4 6 0.15 3.81
11:53 pm 23:53 Cloudy with Rain 56 13.3 55 12.8 97 97 WNW 7 11 29.63 1004 3 5 0.16 4.06

Powered by AerisWeather